カタログに戻る

KUIPER-00412

運用中通信LEO
NORAD 68927·PAYLOAD·🇺🇸 United States

打ち上げ Apr 30, 2026 から Guiana Space Centre

Loading…

次のパス (今後24時間)

TLE

最新Source: CelesTrak SupGP

元期: Sep 14, 2026, 16:30 UTC

1 68927C 26098J   26257.68796296  .00005733  00000+0  75045-3 0  2570
2 68927  51.9040  12.4076 0000591 117.4187 221.0585 14.79925919    17

AllMySatでKUIPER-00412をリアルタイム追跡

Download on the App Store